www.pogodaiklimat.ru

Погода и климат >> Архив погоды >> Австралия >> Западная Австралия >> Маунт Магнет


ПОГОДА в Маунт Магнет

  • Прогноз погоды в Маунт Магнет
  • Монитор погоды в Маунт Магнет

АРХИВ ПОГОДЫ в Маунт Магнет

Время (UTC), дата Ветер
(напр.,м/с)
 
Видим.   Явления Облачность Т
(С)
Тd
(С)
f
(%)
Тe
(С)
Тes
(С)
Комфортность P
(гПа)
Po
(гПа)
Тmin
(С)
Tmax
(С)
R
(мм)
R24
(мм)
S
(см)
01 13.03 СВ 2 н/о н/о +32.4 +10.4 26 +32 +32 жарко 1013.0 967.4 +29.4
03 13.03 Ю 2 н/о н/о +36.4 +9.8 20 +35 +35 очень
жарко
1012.1 966.5
04 13.03 С 4 н/о н/о +38.1 +7.0 15 +36 +36 очень
жарко
1011.1 965.6
06 13.03 СВ 2 н/о н/о +38.1 +7.9 16 +36 +36 очень
жарко
1010.4 964.9
07 13.03 СВ 2 н/о н/о +38.2 +8.9 17 +36 +36 очень
жарко
1010.0 964.5
09 13.03 С 7 н/о н/о +37.8 +9.4 18 +36 +36 очень
жарко
1009.7 964.2
10 13.03 СЗ 6 н/о н/о +35.3 +7.4 18 +33 +33 жарко 1010.4 964.9
12 13.03 ЮЗ 5 н/о н/о +35.1 +8.0 19 +33 +33 жарко 1011.6 966.0
13 13.03 ЮЗ 3 н/о н/о +34.3 +8.8 21 +33 +33 жарко 1012.1 966.5 +39.0
15 13.03 Ю 7 н/о н/о +32.6 +5.2 18 +30 +30 жарко 1012.5 966.9
16 13.03 Ю 5 н/о н/о +31.9 +5.4 19 +30 +30 жарко 1012.7 967.1
18 13.03 В 3 н/о н/о +29.9 +15.2 41 +32 +32 жарко 1012.7 967.1
19 13.03 В 2 н/о н/о +29.2 +15.3 43 +32 +32 душно 1012.7 967.1
21 13.03 В 3 н/о н/о +28.1 +15.4 46 +31 +31 душно 1013.1 967.5
22 13.03 СВ 2 н/о н/о +27.8 +15.5 47 +31 +31 душно 1013.7 968.0
00 14.03 СВ 5 н/о н/о +29.1 +16.0 45 +32 +32 душно 1014.2 968.5
01 14.03 СВ 5 н/о н/о +31.4 +15.8 39 +34 +34 душно 1013.9 968.2 +27.8
03 14.03 С 3 н/о н/о +33.8 +14.3 31 +35 +35 очень
жарко
1013.1 967.5
04 14.03 С 4 н/о н/о +35.0 +13.8 28 +36 +36 очень
жарко
1012.2 966.6
06 14.03 ЮЗ 7 н/о н/о +33.7 +13.2 29 +34 +34 очень
жарко
1010.5 965.0
07 14.03 ЮЗ 3 н/о н/о +34.6 +13.4 28 +35 +35 очень
жарко
1009.9 964.4
09 14.03 СЗ 5 н/о н/о +35.7 +10.7 22 +35 +35 очень
жарко
1010.0 964.5
10 14.03 Ю 4 н/о н/о +34.1 +13.5 29 +35 +35 очень
жарко
1011.0 965.5
12 14.03 СВ 7 н/о н/о +27.5 +18.5 58 +32 +32 очень
душно
1012.9 967.3
13 14.03 В 6 н/о н/о +27.1 +17.8 57 +32 +32 очень
душно
1013.4 967.8 +38.2
15 14.03 СВ 5 н/о н/о +26.2 +17.8 60 +31 +31 очень
душно
1012.6 967.0
16 14.03 СВ 6 н/о н/о +26.2 +17.0 57 +30 +30 душно 1012.3 966.7
18 14.03 С 6 н/о н/о +26.3 +16.3 54 +30 +30 душно 1011.0 965.5
19 14.03 С 6 н/о н/о +26.2 +15.6 52 +29 +29 жарко 1010.9 965.4
21 14.03 С 5 н/о н/о +27.0 +15.4 49 +30 +30 душно 1011.0 965.5
22 14.03 СВ 3 н/о н/о +25.9 +15.6 53 +29 +29 душно 1011.9 966.3
00 15.03 С 6 н/о н/о +28.1 +15.7 47 +31 +31 душно 1012.6 967.0
01 15.03 С 4 н/о н/о +28.9 +15.4 44 +32 +32 душно 1012.9 967.3 +25.3
03 15.03 С 4 н/о н/о +33.6 +12.6 28 +34 +34 очень
жарко
1012.0 966.4
04 15.03 СЗ 4 н/о н/о +33.6 +12.6 28 +34 +34 очень
жарко
1010.9 965.4
06 15.03 ЮЗ 11 н/о н/о +23.3 +18.4 74 +29 +29 душно 1010.7 965.2
07 15.03 СВ 5 н/о туман местами н/о +24.2 +18.2 69 +29 +29 душно 1010.6 965.1
09 15.03 В 6 н/о н/о +26.3 +18.4 62 +31 +31 душно 1010.1 964.6
10 15.03 В 6 н/о туман н/о +25.1 +19.5 71 +30 +30 душно 1010.0 964.5
12 15.03 СВ 4 н/о н/о +23.4 +17.2 68 +29 +29 душно 1011.2 965.7
13 15.03 СВ 3 н/о {туман} н/о +22.5 +17.8 75 +28 +28 душно 1011.9 966.3 +35.7
15 15.03 С 3 н/о н/о +21.7 +18.1 80 +26 +26 душно 1011.5 965.9
16 15.03 ЮЗ 2 н/о н/о +21.2 +18.6 85 +26 +26 душно 1011.2 965.7
18 15.03 В 3 н/о н/о +20.3 +17.7 85 +24 +24 комфорт 1010.7 965.2
19 15.03 В 2 н/о н/о +20.0 +17.4 85 +23 +23 комфорт 1010.6 965.1
21 15.03 штиль 0 н/о н/о +19.2 +17.2 88 +21 +21 комфорт 1010.5 965.0
22 15.03 штиль 0 н/о н/о +19.0 +17.5 91 +20 +20 1010.8 965.3
00 16.03 СВ 3 н/о н/о +22.1 +18.1 78 +27 +27 душно 1012.1 966.5
01 16.03 С 3 н/о н/о +24.8 +18.0 66 +29 +29 душно 1012.5 966.9 +18.8
03 16.03 З 3 н/о н/о +29.6 +14.2 39 +32 +32 душно 1011.9 966.3
04 16.03 З 2 н/о н/о +31.2 +13.9 35 +33 +33 жарко 1011.0 965.5
06 16.03 ЮЗ 4 н/о н/о +33.1 +13.2 30 +34 +34 очень
жарко
1009.3 963.8
07 16.03 З 5 н/о н/о +34.1 +13.0 28 +35 +35 очень
жарко
1008.7 963.3
09 16.03 З 2 н/о н/о +34.3 +10.8 24 +34 +34 очень
жарко
1008.6 963.2
10 16.03 З 4 н/о н/о +33.6 +10.2 24 +33 +33 жарко 1008.8 963.4
12 16.03 Ю 4 н/о н/о +31.8 +11.6 29 +32 +32 жарко 1010.6 965.1
13 16.03 З 2 н/о н/о +30.6 +13.0 34 +32 +32 жарко 1011.2 965.7 +35.2
15 16.03 ЮВ 2 н/о н/о +28.9 +7.5 26 +28 +28 жарко 1010.8 965.3
16 16.03 Ю 2 н/о н/о +28.1 +6.8 26 +27 +27 жарко 1010.9 965.4
18 16.03 штиль 0 н/о н/о +24.7 +12.6 47 +27 +27 жарко 1010.1 964.6
19 16.03 З 3 н/о н/о +24.2 +9.4 39 +25 +25 комфорт 1010.3 964.8
21 16.03 З 1 н/о н/о +22.5 +9.6 44 +24 +24 комфорт 1010.8 965.3
22 16.03 штиль 0 н/о н/о +22.2 +10.0 46 +24 +24 комфорт 1011.5 965.9
00 17.03 СЗ 2 н/о н/о +24.3 +7.4 34 +25 +25 комфорт 1012.2 966.6
01 17.03 СВ 3 н/о н/о +27.5 +12.7 40 +29 +29 жарко 1012.3 966.7 +22.0
03 17.03 С 3 н/о н/о +29.4 +14.4 40 +31 +31 жарко 1012.1 966.5
04 17.03 Ю 2 н/о н/о +29.8 +14.0 38 +32 +32 душно 1011.6 966.0
06 17.03 ЮЗ 3 н/о н/о +31.9 +13.2 32 +33 +33 жарко 1010.0 964.5
07 17.03 СВ 10 н/о н/о +30.0 +14.5 39 +32 +32 жарко 1010.7 965.2
09 17.03 В 7 н/о н/о +29.5 +12.4 35 +31 +31 жарко 1010.5 965.0
10 17.03 СВ 5 н/о н/о +28.9 +13.2 38 +30 +30 жарко 1010.5 965.0
12 17.03 В 3 н/о н/о +27.0 +15.1 48 +30 +30 душно 1011.9 966.3
13 17.03 В 3 н/о н/о +25.5 +16.9 59 +29 +29 душно 1012.5 966.9 +32.7
15 17.03 В 1 н/о н/о +24.1 +17.6 67 +28 +28 душно 1012.3 966.7
16 17.03 СВ 3 н/о н/о +23.7 +17.0 66 +27 +27 жарко 1012.0 966.4
18 17.03 СВ 3 н/о н/о +22.2 +17.1 73 +27 +27 душно 1011.5 965.9
19 17.03 Ю 3 н/о н/о +21.5 +17.9 80 +26 +26 душно 1011.4 965.8
21 17.03 С 1 н/о н/о +21.2 +18.0 82 +25 +25 комфорт 1011.9 966.3
22 17.03 штиль 0 н/о н/о +21.1 +18.1 83 +25 +25 комфорт 1012.0 966.4
00 18.03 В 3 н/о н/о +25.4 +16.5 58 +29 +29 душно 1012.7 967.1
01 18.03 В 4 н/о н/о +26.1 +15.8 53 +29 +29 жарко 1013.0 967.4 +20.7
03 18.03 С 5 н/о н/о +31.7 +14.4 35 +33 +33 жарко 1011.9 966.3
04 18.03 В 4 н/о н/о +32.8 +13.9 32 +34 +34 очень
жарко
1010.7 965.2
06 18.03 СВ 4 н/о н/о +33.7 +12.7 28 +34 +34 очень
жарко
1008.8 963.4
07 18.03 В 6 н/о н/о +34.3 +10.8 24 +34 +34 очень
жарко
1007.9 962.5
09 18.03 В 4 н/о н/о +33.7 +10.9 25 +33 +33 жарко 1007.6 962.2
10 18.03 В 4 н/о н/о +33.3 +10.6 25 +33 +33 жарко 1008.0 962.6
12 18.03 Ю 5 н/о н/о +31.9 +11.7 29 +32 +32 жарко 1009.3 963.8
13 18.03 ЮВ 4 н/о н/о +30.9 +11.8 31 +31 +31 жарко 1009.7 964.2 +35.5
15 18.03 СВ 5 н/о н/о +29.8 +10.4 30 +30 +30 жарко 1009.2 963.7
16 18.03 СВ 3 н/о н/о +28.1 +11.6 36 +29 +29 жарко 1009.4 963.9
18 18.03 СВ 3 н/о н/о +26.3 +12.7 43 +28 +28 жарко 1008.8 963.4
19 18.03 В 4 н/о н/о +25.8 +14.0 48 +28 +28 жарко 1008.7 963.3
21 18.03 СВ 3 н/о н/о +24.7 +14.8 54 +27 +27 жарко 1009.2 963.7
22 18.03 В 3 н/о н/о +23.9 +14.9 57 +27 +27 жарко 1009.8 964.3
00 19.03 СВ 6 н/о н/о +27.0 +15.1 48 +30 +30 душно 1010.4 964.9
01 19.03 СВ 5 н/о н/о +29.6 +15.0 41 +32 +32 душно 1010.4 964.9 +23.9
03 19.03 СВ 6 н/о н/о +33.3 +13.9 31 +34 +34 очень
жарко
1009.7 964.2
04 19.03 СВ 3 н/о н/о +34.9 +13.7 28 +36 +36 душно 1008.6 963.2
06 19.03 ЮВ 7 н/о н/о +27.3 +18.9 60 +32 +32 очень
душно
1007.0 961.6
07 19.03 ЮВ 7 н/о {туман} н/о +27.1 +17.0 54 +31 +31 душно 1006.5 961.2
09 19.03 В 7 н/о н/о +23.3 +19.0 77 +30 +30 очень
душно
1008.4 963.0
10 19.03 В 6 н/о {туман} н/о +23.5 +19.8 80 +29 +29 душно 1008.1 962.7
12 19.03 В 5 н/о н/о +24.3 +17.5 66 +28 +28 душно 1008.7 963.3
13 19.03 В 2 н/о {туман} н/о +23.6 +18.0 71 +28 +28 душно 1009.6 964.1 +35.7
15 19.03 СВ 2 н/о н/о +23.0 +19.0 78 +29 +29 очень
душно
1010.1 964.6
16 19.03 Ю 1 н/о н/о +22.2 +19.4 84 +28 +28 душно 1009.5 964.0
18 19.03 штиль 0 н/о н/о +22.1 +19.5 85 +28 +28 душно 1008.9 963.5
19 19.03 штиль 0 н/о н/о +21.5 +20.0 91 +27 +27 душно 1008.6 963.2
21 19.03 ЮВ 2 н/о н/о +21.4 +20.2 93 +27 +27 душно 1008.8 963.4
22 19.03 Ю 1 н/о н/о +20.9 +19.9 94 +27 +27 душно 1009.4 963.9
00 20.03 В 2 н/о н/о +22.9 +19.9 83 +30 +30 очень
душно
1010.4 964.9
01 20.03 ЮВ 2 н/о н/о +25.4 +19.8 71 +31 +31 очень
душно
1011.1 965.6 +20.4

 

Местоположение метеостанции Маунт Магнет (Западная Австралия, Австралия): широта -28.11 долгота 117.83 высота над уровнем моря 408 м.

В архиве по умолчанию представлена погода в Маунт Магнет за последнюю неделю. Архивные данные за месяц целиком и за предыдущие месяцы, начиная с января 2011 года, Вы можете получить, выбрав интересующий диапазон дат из раскрывающегося списка и нажав кнопку "Ввод!".


*Определитесь, кто Вы:
робот инопланетянин человек

Внимание! Время в таблицах - всемирное. Для получения местного времени необходимо прибавить поправку, которая равна 8 ч.

Смотрите также архив погоды в соседних городах и на ближайших метеорологических станциях:

Погода в Микатарре (Западная Австралия, Австралия) (181 км)
Погода в Мораве (Западная Австралия, Австралия) (214 км)
Погода в Дауоллину (Западная Австралия, Австралия) (266 км)
Погода в Леинстере (Западная Австралия, Австралия) (283 км)
Погода в Джеральдтоне (Западная Австралия, Австралия) (316 км)
Погода в Баджингарре (Западная Австралия, Австралия) (333 км)
Погода в Леоноре (Западная Австралия, Австралия) (352 км)
Погода в Саутерн Кросс (Западная Австралия, Австралия) (377 км)
Погода в Кандердине (Западная Австралия, Австралия) (395 км)
Погода в Гингине (Западная Австралия, Австралия) (419 км)

Пояснения к столбцам:

Ветер - указаны скорость ветра в м/с - средняя за 10 мин, порывы в срок и между сроками (в фигурных скобках) и направление, откуда дует ветер: С - северный, СВ - северо-восточный, В - восточный, ЮВ - юго-восточный, Ю - южный, ЮЗ - юго-западный, З - западный, СЗ - северо-западный.
Видимость - горизонтальная дальность видимости в метрах или километрах. При видимости от 1 до 10 км при отсутствии осадков обычно наблюдается дымка, при ухудшении видимости до 1 км и менее - туман. В сухую погоду видимость может ухудшаться дымом, пылью или мглою.
Явления - указаны атмосферные явления, наблюдавшиеся в срок или в последний час перед сроком; фигурными скобками обозначены явления, наблюдавшиеся между сроками (за 1-3 часа до срока); квадратными скобками обозначены град или гололедные отложения с указанием их диаметра в мм.
Облачность - указаны через наклонную черту общая и нижняя облачность в баллах и высота нижней границы облаков в метрах; квадратными скобками обозначены формы облаков: Ci - перистые, Cs - перисто-слоистые, Cc - перисто-кучевые, Ac - высококучевые, As - высокослоистые, Sc - слоисто-кучевые, Ns - слоисто-дождевые, Cu - кучевые, Cb - кучево-дождевые. Подробнее классификацию облаков см. в Атласе облаков (PDF).
T - Температура воздуха - температура, измеренная на высоте 2 м над землей.
Td - Температура точки росы - температура, при понижении до которой содержащийся в воздухе водяной пар достигнет насыщения.
f - Относительная влажность воздуха - влажноcть воздуха, измеренная на высоте 2 м над землей.
Te - Эффективная температура - температура, которую ощущает одетый по сезону человек в тени. Характеристика душности погоды. При расчете учитывается влияние влажности воздуха и скорости ветра на теплоощущения человека.
Tes - Эффективная температура на солнце - температура, которую ощущает человек, с поправкой на солнечный нагрев. Характеристика знойности погоды. Зависит от высоты солнца над горизонтом, облачности и скорости ветра. Ночью, в пасмурную погоду, а также при ветре 12 м/с и более поправка равна нулю.
P - Атмосферное давление - приведенное к уровню моря атмосферное давление.
Po - Атмосферное давление - измеренное на уровне метеостанции атмосферное давление.
Tmin - Минимальная температура - минимум температуры воздуха на высоте 2 м над землей.
Tmax - Максимальная температура - максимум температуры воздуха на высоте 2 м над землей.
R - Количество осадков - Количество выпавших осадков за период времени, мм. При наведении курсора мыши на число - период времени, за который выпало указанное количество осадков.
R24 - Количество осадков - Количество выпавших осадков за 24 часа, мм.
S - Снежный покров - Высота снежного покрова, см. При наведении курсора мыши на число - состояние снежного покрова и степень покрытия местности в баллах.